Tracking 29892 objects as of 21-Nov-2024
HD Live streaming from Space Station
objects crossing your sky now

OBJECT C

Track OBJECT C now!
10-day predictions


NORAD ID: 61240
Int'l Code: 2024-174C
Perigee: 509.2 km
Apogee: 532.7 km
Inclination: 97.5 °
Period: 94.9 minutes
Semi major axis: 6891 km
RCS: Unknown
Launch date: September 24, 2024
Source: People's Republic of China (PRC)
Launch site: Jiuquan Satellite Launch Center, China (JSC)
Your satellite tracking list
Your tracking list is empty




NASA's NSSDC Master Catalog

Two Line Element Set (TLE):
1 61240U 24174C   24326.16354188  .00012908  00000-0  64668-3 0  9997
2 61240  97.4500 330.4425 0017063  82.7396 277.5777 15.17373455  8633
Source of the keplerian elements: AFSPC